Location: Ústí nad Labem
(50.6611°N, 14.0531°E)
Time: 19:36:50
(UTC+02:00)

S-56A Canister/Altair - Pass Details

Date: 04 May 2025
Orbit: 633 x 2485 km, 38.9° (Epoch: 12 May)

Event Time Altitude Azimuth Distance (km) Brightness Sun altitude
Rises 20:59:22 0° 241° (WSW) 2,978 11.0 -4.9°
Reaches altitude 10° 21:01:52 10° 226° (SW) 2,160 10.0 -5.2°
Maximum altitude 21:05:48 24° 172° (S) 1,603 8.8 -5.8°
Drops below altitude 10° 21:10:43 10° 120° (ESE) 2,747 9.7 -6.4°
Enters shadow 21:11:40 - 116° (ESE) 3,066 9.9 -6.5°
